Flag for U.S.A. Weather past 2 weeks in Mobile, Alabama, U.S.A.

Now
80 °F

Clear.


Feels Like: 85 °F
Forecast: 76 / 87 °F
Wind: 6 mph from South

Location: Mobile Downtown Airport

Current Time: Aug 30, 2014 at 1:19:52 AM

Latest Report: Aug 30, 2014 at 12:53 AM


Visibility: 10 mi

Pressure: 30.07 "Hg

Humidity: 87%

Dew point: 76 °F

Location of MobileLocation

Historic Weather in Mobile — Graph

°F

Mobile temperature yesterday

Maximum temperature yesterday: 90 °F (at 12:53 PM)
Minimum temperature yesterday: 74 °F (at 6:53 AM)
Average temperature yesterday: 81 °F

Past Weeks' High & Low Weather Summary

 TemperatureHumidityPressure
High99 °F (Aug 24, 3:53 PM)100% (Aug 17, 4:53 AM)30.16 "Hg (Aug 17, 4:53 AM)
Low69 °F (Aug 15, 5:53 AM)41% (Aug 24, 3:53 PM)29.83 "Hg (Aug 24, 4:53 PM)
Average83 °F77%30.01 "Hg
* Reported Aug 14 11:53 PM — Aug 29 11:53 PM, Mobile, Weather by CustomWeather, © 2014

Note: Actual official high and low records may vary slightly from our data, if they occured in-between our weather recording intervals... More about our weather records

Advertising

Mobile weather history for previous 24 hours

 ConditionsComfort  
Time TempWeatherWind HumidityBarometerVisibility
11:53 PM
Aug 29
78 °FClear.5 mph90%30.04 "Hg10 mi
10:53 PM78 °FLight rain. Clear.9 mph96%30.05 "Hg10 mi
9:53 PM80 °FLight rain. Passing clouds.6 mph94%30.03 "Hg10 mi
8:53 PM80 °FLight rain. Clear.5 mph90%30.02 "Hg10 mi
7:53 PM80 °FSunny.No wind87%30.00 "Hg10 mi
6:53 PM81 °FPartly sunny.No wind85%29.99 "Hg10 mi
5:53 PM82 °FSunny.5 mph88%30.00 "Hg10 mi
4:53 PM82 °FLight rain. Broken clouds.6 mph85%30.00 "Hg10 mi
3:53 PM84 °FSunny.3 mph80%29.97 "Hg10 mi
1:53 PM88 °FBroken clouds.13 mph63%29.99 "Hg10 mi
12:53 PM90 °FPartly sunny.10 mph59%30.01 "Hg10 mi
11:53 AM89 °FScattered clouds.7 mph63%30.01 "Hg10 mi
10:53 AM89 °FScattered clouds.12 mph65%30.02 "Hg10 mi
9:53 AM85 °FPassing clouds.13 mph72%30.03 "Hg10 mi
8:53 AM83 °FMostly cloudy.13 mph77%30.00 "Hg10 mi
7:53 AM79 °FPassing clouds.7 mph84%29.99 "Hg10 mi
6:53 AM74 °FClear.3 mph97%29.99 "Hg8 mi
5:53 AM75 °FPassing clouds.5 mph94%29.97 "Hg10 mi
4:53 AM76 °FClear.5 mph91%29.97 "Hg10 mi
3:53 AM75 °FClear.No wind90%29.98 "Hg10 mi
2:53 AM80 °FClear.7 mph79%29.98 "Hg10 mi
1:53 AM80 °FClear.8 mph79%29.98 "Hg10 mi
Weather by CustomWeather, © 2014

See weather overviewHow to use our weather pages